www.pogodaiklimat.ru
ПОГОДА на Авиабазе Уоррен
Время
и дата
18:55 18.07
19:55 18.07
20:55 18.07
21:55 18.07
22:55 18.07
23:55 18.07
00:55 19.07
01:55 19.07
02:55 19.07
03:55 19.07
04:55 19.07
05:55 19.07
06:55 19.07
07:55 19.07
08:55 19.07
09:55 19.07
10:55 19.07
11:55 19.07
12:06 19.07
12:49 19.07
12:55 19.07
13:55 19.07
14:55 19.07
15:55 19.07
16:25 19.07
16:31 19.07
16:32 19.07
16:54 19.07
16:55 19.07
17:24 19.07
17:55 19.07
18:32 19.07
18:55 19.07
18:58 19.07
19:55 19.07
20:55 19.07
21:55 19.07
22:55 19.07
23:55 19.07
00:55 20.07
01:55 20.07
02:55 20.07
03:55 20.07
05:55 20.07
06:55 20.07
07:55 20.07
08:55 20.07
09:55 20.07
Ветер
(напр.,м/с)
Видим. Явления Облачность Т
(С)
Тd
(С)
f
(%)
Тe
(С)
Тes
(С)
Комфортность P
(гПа)
Po
(гПа)
Тmin
(С)
Tmax
(С)
R
(мм)
R24
(мм)
S
(см)
Ю 3 16 км 2/0
[Ac]
+23.8 +8.6 38 +24 +25 комфорт 1016.3 815.8
Ю 3 16 км 8/0
[Ac]
+17.3 +10.7 65 +17 +17 1017.5 816.4
Ю 2 16 км 8/0
[Ac]
+17.2 +10.6 65 +18 +18 1017.4 816.9
Ю 2 16 км 8/0
[Ac]
+16.3 +12.1 76 +16 +16 1017.0 816.6
З 2 16 км 8/0
[Ac]
+15.3 +12.2 82 +15 +15 1017.4 816.9 +14.8 +24.0
штиль 0 16 км 8/0
[Ac]
+14.4 +11.9 85 +14 +14 1016.7 816.4
штиль 0 16 км 5/0
[Ac]
+13.3 +11.3 88 +13 +13 1016.3 816.1
штиль 0 16 км 5/0
[Ac]
+14.7 +11.1 79 +14 +14 1015.2 815.8
СЗ 4 16 км 8/0
[Ac]
+14.3 +10.5 78 +13 +13 1016.3 816.1
штиль 0 16 км 2/0
[Ac]
+14.4 +9.6 73 +14 +14 1017.5 816.1
СЗ 2 16 км 5/0
[Ac Ci]
+13.0 +10.2 83 +12 +12 1017.6 815.8 +12.0 +15.3 0.5
СЗ 3 16 км 8/0
[Ac]
+18.1 +10.7 62 +18 +18 1016.3 816.1
СЗ 4 16 км 8/0
[Ac]
+22.7 +8.4 40 +24 +24 комфорт 1015.9 816.4
СЗ 4 16 км 8/0
[Ac]
+25.0 +8.5 35 +25 +27 комфорт 1017.4 816.9
СЗ 6
{9}
13 км ясно +26.9 +6.3 27 +26 +29 жарко 1017.0 816.9
С 6 16 км ясно +28.6 +7.7 27 +28 +33 жарко 1016.6 816.9
С 5
{8}
16 км ясно +29.4 +7.9 26 +29 +37 жарко 1017.4 817.2 +13.1 +29.5
СЗ 4 16 км ясно +29.7 +8.1 26 +29 +41 жарко 1016.7 816.6
СЗ 6
{9}
16 км ясно +29.0 +7.0 25 +28 +36 жарко 1016.7 816.6
СВ 5
{8}
16 км 2/0
[Ac]
+31.0 +7.0 22 +30 +38 жарко 1016.3 816.4
С 4
{8}
16 км 5/0
[Ac]
+30.2 +6.8 23 +29 +38 жарко 1016.3 816.4
С 3 16 км 8/2
[Ac]
+28.7 +6.1 24 +28 +33 жарко 1016.0 816.1
ЮЗ 5 16 км 5/0
[Ac]
+30.0 +7.8 25 +29 +34 жарко 1015.6 815.8
ЮЗ 8
{9}
16 км 10/0
[Ac]
+25.4 +8.4 34 +26 +26 жарко 1016.0 815.6
СЗ 10 16 км гроза 10/0
[Ac]
+25.0 +9.0 36 +26 +26 жарко 1017.5 816.4
СЗ 12
{16}
14 км гроза 10/0
[Ac]
+24.0 +8.0 36 +24 +24 комфорт 1017.5 816.4
СЗ 13
{16}
14 км гроза с дождем 10/0
[Ac]
+23.0 +9.0 41 +24 +24 комфорт 1018.2 816.6
ЮЗ 2 16 км гроза, слабый дождь 10/0
[Ac]
+18.0 +12.0 68 +19 +21 1019.1 816.6
ЮЗ 3 16 км гроза, слабый дождь 10/0
[Ac]
+18.0 +11.8 67 +18 +20 1019.1 816.6 +17.9 +31.6 2.3
ЮЗ 3 16 км 10/0
[Ac]
+18.0 +13.0 73 +18 +19 1018.7 816.4
штиль 0 16 км 2/0
[Ac]
+19.4 +14.4 73 +21 +25 комфорт 1017.8 816.6
СВ 8
{13}
16 км слабый дождь 10/0
[Ac As]
+18.0 +11.0 64 +17 +17 1019.5 818.3
ЮВ 2 16 км слабый дождь 10/0
[Ac As]
+16.9 +12.0 73 +17 +18 1018.4 817.5
Ю 2 16 км 10/0
[Ac]
+17.0 +13.0 77 +17 +18 1018.1 817.2
З 5 16 км 8/0
[Ac Ci]
+16.7 +12.0 74 +16 +16 1018.4 817.7 0.3
СЗ 3 16 км 5/0
[Ac]
+17.3 +12.4 73 +17 +17 1018.4 818.0
СЗ 4 16 км 10/0
[Ac Ci]
+17.7 +11.7 68 +17 +17 1017.7 817.7
штиль 0 16 км 10/0
[Ac]
+15.7 +11.3 75 +16 +16 1017.7 817.7 +15.6 +19.7 0.3
СЗ 3 16 км 8/0
[Ac]
+15.8 +11.2 74 +15 +15 1018.0 818.0
З 4 16 км 8/0
[Ac]
+15.0 +10.2 73 +14 +14 1018.4 818.0
З 4 16 км 8/0
[Ac]
+15.3 +9.9 70 +14 +14 1018.1 817.7
З 3 16 км 8/0
[Ac]
+14.4 +9.4 72 +14 +14 1018.1 817.7
С 2 16 км 10/0
[Ac]
+14.6 +9.8 73 +14 +14 1019.8 818.5
СЗ 4 16 км 8/0
[Ac]
+16.6 +12.1 75 +16 +16 1021.0 818.8
З 4 16 км 2/0
[Ac]
+19.1 +12.6 66 +20 +21 1021.0 818.8
С 4 16 км ясно +21.4 +10.8 51 +23 +26 комфорт 1021.0 819.1
С 3 16 км ясно +22.8 +10.6 46 +25 +31 комфорт 1020.9 819.3
СВ 5 16 км 2/2 +24.8 +10.6 41 +26 +31 жарко 1020.5 819.3
Местоположение метеостанции Warren Air Force Base: широта 41.1409 долгота -104.8691 высота над уровнем моря 1877 м.
В архиве по умолчанию представлена погода на Авиабазе Уоррен за последние 1-2 суток. Обновление информации о фактической погоде в базе происходит ежечасно! Архивные данные за месяц целиком и за предыдущие месяцы Вы можете получить, выбрав интересующий диапазон дат из раскрывающегося списка и нажав кнопку "Ввод!".
Внимание! Архив погоды МЕТАР в базе сайта по станциям, не включенным в климатический монитор, хранится не более 60 дней. Нет смысла пытаться выбрать более раннюю дату.
*Определитесь, кто Вы:
Внимание! Время в таблицах - местное (без учета летнего времени). Для получения всемирного времени необходимо вычесть поправку, которая равна -7 ч.
Смотрите также архив погоды в соседних городах и на ближайших метеорологических станциях:
Партнеры нашего сайта:      
Пояснения к столбцам:
  • Ветер - указаны скорость ветра в м/с - средняя за 10 мин, порывы в срок и между сроками (в фигурных скобках) и направление, откуда дует ветер: С - северный,
  • СВ - северо-восточный, В - восточный, ЮВ - юго-восточный, Ю - южный, ЮЗ - юго-западный, З - западный, СЗ - северо-западный.
  • Видимость - горизонтальная дальность видимости в метрах или километрах. При видимости от 1 до 10 км при отсутствии осадков обычно наблюдается дымка, при ухудшении видимости до 1 км и менее - туман. В сухую погоду видимость может ухудшаться дымом, пылью или мглою.
  • Явления - указаны атмосферные явления, наблюдавшиеся в срок или в последний час перед сроком; фигурными скобками обозначены явления, наблюдавшиеся между сроками (за 1-3 часа до срока); квадратными скобками обозначены град или гололедные отложения с указанием их диаметра в мм.
  • Облачность - указаны через наклонную черту общая и нижняя облачность в баллах и высота нижней границы облаков в метрах; квадратными скобками обозначены формы облаков: Ci - перистые, Cs - перисто-слоистые, Cc - перисто-кучевые, Ac - высококучевые, As - высокослоистые, Sc - слоисто-кучевые, Ns - слоисто-дождевые, Cu - кучевые, Cb - кучево-дождевые. Подробнее классификацию облаков см. в Атласе облаков (PDF).
  • T - Температура воздуха - температура, измеренная на высоте 2 м над землей.
  • Td - Температура точки росы - температура, при понижении до которой содержащийся в воздухе водяной пар достигнет насыщения.
  • f - Относительная влажность воздуха - влажноcть воздуха, измеренная на высоте 2 м над землей.
  • Te - Эффективная температура - температура, которую ощущает одетый по сезону человек в тени. Характеристика душности погоды. При расчете учитывается влияние влажности воздуха и скорости ветра на теплоощущения человека.
  • Tes - Эффективная температура на солнце - температура, которую ощущает человек, с поправкой на солнечный нагрев. Характеристика знойности погоды. Зависит от высоты солнца над горизонтом, облачности и скорости ветра. Ночью, в пасмурную погоду, а также при ветре 12 м/с и более поправка равна нулю.
  • P - Атмосферное давление - приведенное к уровню моря атмосферное давление.
  • Po - Атмосферное давление - измеренное на уровне метеостанции атмосферное давление.
  • Tmin - Минимальная температура - минимум температуры воздуха на высоте 2 м над землей.
  • Tmax - Максимальная температура - максимум температуры воздуха на высоте 2 м над землей.
  • R - Количество осадков - Количество выпавших осадков за период времени, мм. При наведении курсора мыши на число - период времени, за который выпало указанное количество осадков.
  • R24 - Количество осадков - Количество выпавших осадков за 24 часа, мм.
  • S - Снежный покров - Высота снежного покрова, см. При наведении курсора мыши на число - состояние снежного покрова и степень покрытия местности в баллах.